Date String (YYYY-MM-DD hh:mm:ss) UTC,Instrument flags,absolute air pressure of the measurement (hPa),sample flow rate (lpm),inlet stack bypass flow (lpm),air temperature of the measurement (°C),ambient temperature measured by the external sensor (°C),aerosol sample conditioner tube jacket temperature (°C),OPC LED temperature (°C),internal box temperature (°C),relative humidity of the measurement (%),span deviation,mass concentration of particles derived from Lorenz-Mie calculation of OPC scattering (μg/m³),mass concentration of particles derived from Lorenz-Mie calculation of OPC scattering (μg/m³),mass concentration of particles derived from Lorenz-Mie calculation of OPC scattering (μg/m³)
DateTimeUTC,F1_M11,P_M11,Q1_M11,Q2_M11,T1_M11,T2_M11,T3_M11,T4_M11,T5_M11,U1_M11,ZSPAN_M11,X0_M11,X2_M11,X1_M11
2023-11-26 09:00:00,SystemResetWarning,0831.1,4.99,000.00,018.8,017.7,000.0,027.3,020.0,12.3,0000.0,0002.78,0002.25,0002.02
2023-11-26 09:01:00,SystemResetWarning,0831.1,5.00,000.00,018.8,017.7,000.0,027.3,020.1,12.3,0000.0,0002.65,0002.19,0001.98
2023-11-26 09:02:00,SystemResetWarning,0831.1,5.02,000.00,018.8,018.2,000.0,027.2,020.5,12.3,0000.0,0002.60,0002.15,0001.95
2023-11-26 09:03:00,SystemResetWarning,0831.2,4.99,000.00,019.0,019.0,000.0,027.2,020.8,12.2,0000.0,0002.57,0002.12,0001.93
2023-11-26 09:04:00,SystemResetWarning,0831.1,4.99,000.00,019.0,018.9,000.0,027.2,020.3,12.2,0000.0,0002.58,0002.12,0001.92
2023-11-26 09:05:00,SystemResetWarning,0831.1,5.00,000.00,018.9,018.7,000.0,027.2,020.0,12.1,0000.0,0002.57,0002.10,0001.90
2023-11-26 09:06:00,SystemResetWarning,0831.1,5.00,000.00,018.9,018.4,000.0,027.2,020.0,12.2,0000.0,0002.49,0002.08,0001.88
2023-11-26 09:07:00,SystemResetWarning,0831.1,5.00,000.00,018.8,018.2,000.0,027.3,020.0,12.2,0000.0,0002.49,0002.07,0001.87
2023-11-26 09:08:00,SystemResetWarning,0831.1,5.00,000.00,018.8,018.1,000.0,027.3,020.0,12.2,0000.0,0002.58,0002.11,0001.89
2023-11-26 09:09:00,SystemResetWarning,0831.1,4.99,000.00,018.8,017.9,000.0,027.3,020.0,12.2,0000.0,0002.59,0002.13,0001.91
2023-11-26 09:10:00,SystemResetWarning,0831.1,5.01,000.00,018.8,017.8,000.0,027.3,020.0,12.2,0000.0,0002.56,0002.13,0001.93
2023-11-26 09:11:00,SystemResetWarning,0831.1,5.01,000.00,018.8,017.9,000.0,027.2,020.2,12.2,0000.0,0002.63,0002.11,0001.93
2023-11-26 09:12:00,SystemResetWarning,0831.1,5.01,000.00,018.9,018.6,000.0,027.2,020.7,12.2,0000.0,0002.72,0002.12,0001.94
2023-11-26 09:13:00,SystemResetWarning,0831.2,4.99,000.00,019.0,019.1,000.0,027.2,020.7,12.1,0000.0,0002.77,0002.16,0001.97
2023-11-26 09:14:00,SystemResetWarning,0831.2,4.99,000.00,018.9,018.8,000.0,027.2,020.1,12.1,0000.0,0002.73,0002.15,0001.97
2023-11-26 09:15:00,SystemResetWarning,0831.1,5.01,000.00,018.9,018.6,000.0,027.2,020.0,12.1,0000.0,0002.71,0002.14,0001.97
2023-11-26 09:16:00,SystemResetWarning,0831.2,5.01,000.00,018.9,018.3,000.0,027.3,020.0,12.1,0000.0,0002.70,0002.14,0001.97
2023-11-26 09:17:00,SystemResetWarning,0831.1,5.00,000.00,018.8,018.1,000.0,027.3,020.0,12.0,0000.0,0002.68,0002.12,0001.97
2023-11-26 09:18:00,SystemResetWarning,0831.1,5.00,000.00,018.8,017.9,000.0,027.3,020.0,12.0,0000.0,0002.71,0002.13,0001.97
2023-11-26 09:19:00,SystemResetWarning,0831.1,5.00,000.00,018.8,017.8,000.0,027.3,020.0,12.0,0000.0,0002.66,0002.11,0001.96
2023-11-26 09:20:00,SystemResetWarning,0831.1,5.00,000.00,018.8,017.8,000.0,027.2,020.2,11.9,0000.0,0002.64,0002.10,0001.96
2023-11-26 09:21:00,SystemResetWarning,0831.2,5.01,000.00,018.9,018.5,000.0,027.2,020.6,11.9,0000.0,0002.61,0002.09,0001.96
2023-11-26 09:22:00,SystemResetWarning,0831.1,4.98,000.00,019.0,019.1,000.0,027.2,020.7,11.7,0000.0,0002.61,0002.13,0001.97
2023-11-26 09:23:00,SystemResetWarning,0831.2,4.99,000.00,019.0,018.9,000.0,027.2,020.1,11.7,0000.0,0002.63,0002.13,0001.97
2023-11-26 09:24:00,SystemResetWarning,0831.1,5.01,000.00,018.9,018.6,000.0,027.2,020.0,11.7,0000.0,0002.60,0002.10,0001.95
2023-11-26 09:25:00,SystemResetWarning,0831.2,5.00,000.00,018.9,018.3,000.0,027.2,020.0,11.7,0000.0,0002.61,0002.11,0001.94
2023-11-26 09:26:00,SystemResetWarning,0831.2,4.99,000.00,018.8,018.2,000.0,027.3,020.0,11.7,0000.0,0002.59,0002.10,0001.94
2023-11-26 09:27:00,SystemResetWarning,0831.2,4.99,000.00,018.8,018.1,000.0,027.3,020.0,11.7,0000.0,0002.58,0002.10,0001.93
2023-11-26 09:28:00,SystemResetWarning,0831.3,5.00,000.00,018.8,017.9,000.0,027.3,020.0,11.7,0000.0,0002.57,0002.09,0001.92
2023-11-26 09:29:00,SystemResetWarning,0831.2,5.00,000.00,018.8,017.8,000.0,027.3,020.0,11.7,0000.0,0002.54,0002.08,0001.92
2023-11-26 09:30:00,SystemResetWarning,0831.2,5.01,000.00,018.8,017.8,000.0,027.2,020.1,11.7,0000.0,0002.55,0002.09,0001.91
2023-11-26 09:31:00,SystemResetWarning,0831.3,5.00,000.00,018.9,018.4,000.0,027.2,020.6,11.6,0000.0,0002.58,0002.10,0001.91
2023-11-26 09:32:00,SystemResetWarning,0831.3,5.00,000.00,019.0,019.0,000.0,027.2,020.8,11.5,0000.0,0002.62,0002.12,0001.92
2023-11-26 09:33:00,SystemResetWarning,0831.3,5.00,000.00,019.0,018.9,000.0,027.2,020.2,11.5,0000.0,0002.60,0002.12,0001.92
2023-11-26 09:34:00,SystemResetWarning,0831.3,4.99,000.00,018.9,018.6,000.0,027.2,020.0,11.4,0000.0,0002.52,0002.11,0001.91
2023-11-26 09:35:00,SystemResetWarning,0831.3,5.00,000.00,018.9,018.4,000.0,027.2,020.0,11.4,0000.0,0002.54,0002.12,0001.90
2023-11-26 09:36:00,SystemResetWarning,0831.3,5.00,000.00,018.8,018.2,000.0,027.3,020.0,11.4,0000.0,0002.57,0002.12,0001.89
2023-11-26 09:37:00,SystemResetWarning,0831.3,5.00,000.00,018.8,018.1,000.0,027.3,020.0,11.3,0000.0,0002.57,0002.11,0001.89
2023-11-26 09:38:00,SystemResetWarning,0831.3,5.01,000.00,018.8,017.9,000.0,027.3,020.0,11.1,0000.0,0002.58,0002.12,0001.89
2023-11-26 09:39:00,SystemResetWarning,0831.3,5.00,000.00,018.8,017.8,000.0,027.3,020.0,11.0,0000.0,0002.69,0002.16,0001.89
2023-11-26 09:40:00,SystemResetWarning,0831.3,5.00,000.00,018.8,018.0,000.0,027.2,020.3,10.9,0000.0,0002.72,0002.16,0001.88
2023-11-26 09:41:00,SystemResetWarning,0831.3,5.02,000.00,018.9,018.7,000.0,027.2,020.7,10.7,0000.0,0002.68,0002.14,0001.87
2023-11-26 09:42:00,SystemResetWarning,0831.3,4.98,000.00,019.0,019.0,000.0,027.2,020.5,10.6,0000.0,0002.61,0002.11,0001.86
2023-11-26 09:43:00,SystemResetWarning,0831.3,5.00,000.00,018.9,018.8,000.0,027.2,020.0,10.5,0000.0,0002.59,0002.08,0001.84
2023-11-26 09:44:00,SystemResetWarning,0831.3,5.01,000.00,018.9,018.5,000.0,027.2,020.0,10.5,0000.0,0002.59,0002.05,0001.82
2023-11-26 09:45:00,SystemResetWarning,0831.3,5.01,000.00,018.9,018.3,000.0,027.3,020.0,10.6,0000.0,0002.54,0002.04,0001.81
2023-11-26 09:46:00,SystemResetWarning,0831.3,5.00,000.00,018.8,018.1,000.0,027.3,020.0,10.6,0000.0,0002.50,0002.03,0001.81
2023-11-26 09:47:00,SystemResetWarning,0831.3,5.00,000.00,018.8,018.0,000.0,027.3,020.0,10.5,0000.0,0002.47,0002.02,0001.81
2023-11-26 09:48:00,SystemResetWarning,0831.3,5.00,000.00,018.8,017.8,000.0,027.3,020.0,10.6,0000.0,0002.61,0002.03,0001.79
2023-11-26 09:49:00,SystemResetWarning,0831.3,5.00,000.00,018.8,017.8,000.0,027.3,020.1,10.5,0000.0,0002.65,0002.03,0001.77
2023-11-26 09:50:00,SystemResetWarning,0831.3,5.01,000.00,018.9,018.3,000.0,027.2,020.5,10.5,0000.0,0002.60,0001.99,0001.75
2023-11-26 09:51:00,SystemResetWarning,0831.4,5.00,000.00,019.0,019.0,000.0,027.2,020.8,10.4,0000.0,0002.56,0001.98,0001.75
2023-11-26 09:52:00,SystemResetWarning,0831.3,4.98,000.00,019.0,019.0,000.0,027.2,020.5,10.2,0000.0,0002.59,0001.99,0001.75
2023-11-26 09:53:00,SystemResetWarning,0831.3,5.01,000.00,019.0,018.8,000.0,027.2,020.1,10.2,0000.0,0003.19,0002.00,0001.73
2023-11-26 09:54:00,SystemResetWarning,0831.3,5.01,000.00,018.9,018.5,000.0,027.2,020.0,10.2,0000.0,0003.80,0002.00,0001.72
2023-11-26 09:55:00,SystemResetWarning,0831.3,5.00,000.00,018.9,018.4,000.0,027.3,020.0,10.2,0000.0,0003.84,0002.02,0001.72
2023-11-26 09:56:00,SystemResetWarning,0831.3,5.00,000.00,018.8,018.2,000.0,027.3,020.0,10.4,0000.0,0003.82,0002.01,0001.72
2023-11-26 09:57:00,SystemResetWarning,0831.3,5.00,000.00,018.8,018.1,000.0,027.3,020.0,10.5,0000.0,0003.82,0001.99,0001.70
2023-11-26 09:58:00,SystemResetWarning,0831.4,5.00,000.00,018.8,018.0,000.0,027.3,020.0,10.6,0000.0,0003.83,0001.99,0001.69
2023-11-26 09:59:00,SystemResetWarning,0831.4,4.99,000.00,018.8,017.9,000.0,027.2,020.0,10.8,0000.0,0003.67,0001.97,0001.69
